This is the latest recevied weather packets stored in our database for station/object DL5DI-H. If no packets are shown the sender has not sent any weather packets the latest 10 day(s).
| Time | Temp. | Humidity | Pressure | Rain* | Wind** | Luminosity | Snow |
|---|---|---|---|---|---|---|---|
| 1788549000 | 19.44° C | 84% | 1015.7 hPa | 0 mm | - | - | - |
| 1788548401 | 19.44° C | 84% | 1015.7 hPa | 0 mm | - | - | - |
| 1788547800 | 19.44° C | 84% | 1015.7 hPa | 0 mm | - | - | - |
| 1788547200 | 23.33° C | 70% | 1014.9 hPa | 0 mm | - | - | - |
| 1788546602 | 23.33° C | 70% | 1014.9 hPa | 0 mm | - | - | - |
| 1788546002 | 23.33° C | 70% | 1014.9 hPa | 0 mm | - | - | - |
| 1788545402 | 23.33° C | 70% | 1014.9 hPa | 0 mm | - | - | - |
| 1788544801 | 24.44° C | 65% | 1014.6 hPa | 0 mm | - | - | - |
| 1788544202 | 26.67° C | 56% | 1014.1 hPa | 0 mm | - | - | - |
| 1788543602 | 26.67° C | 55% | 1013.9 hPa | 0 mm | - | - | - |
| 1788543003 | 26.67° C | 55% | 1013.9 hPa | 0 mm | - | - | - |
| 1788542401 | 27.78° C | 53% | 1013.6 hPa | 0 mm | - | - | - |
| 1788541801 | 27.78° C | 52% | 1013.5 hPa | 0 mm | - | - | - |
| 1788541201 | 28.33° C | 52% | 1013.6 hPa | 0 mm | - | - | - |
| 1788540600 | 28.33° C | 51% | 1013.5 hPa | 0 mm | - | - | - |
| 1788540000 | 28.89° C | 51% | 1013.4 hPa | 0 mm | - | - | - |
| 1788539402 | 28.89° C | 51% | 1013.4 hPa | 0 mm | - | - | - |
| 1788538802 | 28.89° C | 51% | 1013.5 hPa | 0 mm | - | - | - |
| 1788538201 | 28.89° C | 52% | 1013.5 hPa | 0 mm | - | - | - |
| 1788537600 | 28.89° C | 52% | 1013.6 hPa | 0 mm | - | - | - |
| 1788537000 | 28.89° C | 52% | 1013.5 hPa | 0 mm | - | - | - |
| 1788536400 | 28.89° C | 52% | 1013.6 hPa | 0 mm | - | - | - |
| 1788535802 | 28.89° C | 52% | 1013.6 hPa | 0 mm | - | - | - |
| 1788535221 | 28.89° C | 52% | 1013.6 hPa | 0 mm | - | - | - |
| 1788534602 | 29.44° C | 52% | 1013.6 hPa | 0 mm | - | - | - |
* Rain latest hour (hover to see other rain measurements)
** Current wind speed in m/s (hover to see current wind gust speed)